Location: Bernadets
(43.3537°N, 0.3167°E)
Time: 07:16:28
(UTC+00:00)

Cosmos 1602 Rocket - Pass Details

Date: 24 October 2021
Orbit: 603 x 634 km, 82.5° (Epoch: 02 December)

Event Time Altitude Azimuth Distance (km) Brightness Sun altitude
Rises 17:45:32 0° 2° (N) 2,883 6.9 -8.7°
Reaches altitude 10° 17:48:04 10° 15° (NNE) 1,969 5.9 -9.1°
Maximum altitude 17:51:46 26° 74° (ENE) 1,190 4.4 -9.8°
Drops below altitude 10° 17:55:25 10° 132° (SE) 1,947 5.7 -10.5°
Sets 17:57:53 0° 144° (SE) 2,843 6.7 -10.9°
